{"data":{"norad_id":56072,"epoch":"2026-09-19T17:07:27.867936Z","epoch_age_seconds":86080,"freshness":"FRESH","line1":"1 56072U 23043AC  26262.71351699  .00000099  00000+0  22792-3 0  9993","line2":"2 56072  87.8994 240.3503 0002014  75.6395 284.4958 13.15549116168850","mean_motion":13.15549116,"eccentricity":0.0002014,"inclination_deg":87.8994,"raan_deg":240.3503,"arg_perigee_deg":75.6395,"mean_anomaly_deg":284.4958,"bstar":0.00022792,"rev_number":16885,"period_min":109.45999525874,"perigee_km":1200.2420003623,"apogee_km":1203.2951863353,"semimajor_km":7579.9055933488,"source":"CELESTRAK","updated_at":"2026-09-20T09:00:44.792005Z"}}